Location: Chandolas
(44.4033°N, 4.2533°E)
Time: 18:06:55
(UTC+00:00)

SJ 16-02 - Pass Details

Date: 15 November 2019
Orbit: 606 x 616 km, 75.0° (Epoch: 14 December)

Event Time Altitude Azimuth Distance (km) Brightness Sun altitude
Rises 04:38:57 0° 196° (SSW) 2,856 4.7 -21.3°
Reaches altitude 10° 04:41:10 10° 196° (SSW) 1,955 3.8 -20.9°
Maximum altitude 04:45:32 86° 109° (ESE) 616 1.3 -20.1°
Drops below altitude 10° 04:49:56 10° 20° (NNE) 1,966 4.1 -19.4°
Sets 04:52:11 0° 20° (NNE) 2,874 4.9 -19.0°
